Weather History for KCDJ - August, 2013

Change the Weather History Date:

Thursday, August 1, 2013

  Actual Average (KIRK) Record (KIRK)
Temperature  
Mean Temperature 76 °F 76 °F  
Max Temperature 87 °F 86 °F 101 °F (1940)
Min Temperature 64 °F 65 °F 53 °F (1925)
Degree Days  
Heating Degree Days 0 0  
Month to date heating degree days 0  
Since 1 June heating degree days 17  
Since 1 July heating degree days 1  
Cooling Degree Days 10 11  
Month to date cooling degree days 11  
Year to date cooling degree days 578  
Since 1 June cooling degree days 516  
Growing Degree Days 26 (Base 50)    
Moisture  
Dew Point 65 °F    
Average Humidity 73    
Maximum Humidity 93    
Minimum Humidity 47    
Precipitation  
Precipitation 0.00 in 0.11 in 3.86 in (1932)
Month to date precipitation 0.11  
Year to date precipitation 23.70  
Sea Level Pressure  
Sea Level Pressure 30.03 in    
Wind  
Wind Speed 1 mph (South)    
Max Wind Speed 7 mph    
Max Gust Speed -    
T = Trace of Precipitation, MM = Missing Value Source: NWS Daily Summary

Daily Weather History Graph

Daily Weather History Graph

Search for Another Location

Airport or City:

Trip Planner

Search our weather history database for the weather conditions in past years. The results will help you decide how hot, cold, wet, or windy it might be!

Date:

Astronomy

Aug. 01, 2013 Rise Set
Actual Time 6:13 AM CDT 8:27 PM CDT
Civil Twilight 5:43 AM CDT 8:57 PM CDT
Nautical Twilight 5:06 AM CDT 9:34 PM CDT
Astronomical Twilight 4:25 AM CDT 10:14 PM CDT
Moon 1:50 AM CDT (8/1) 4:36 PM CDT (8/1)
Length of Visible Light 15h 14m
Length of Day
14h 13m
Waning Crescent, 23% of the Moon is Illuminated
Aug 1
Waning Crescent
Aug 6
New
Aug 14
First Quarter
Aug 20
Full
Aug 28
Last Quarter

Hourly Weather History & Observations

Time (CDT) Temp. Heat Index Dew Point Humidity Pressure Visibility Wind Dir Wind Speed Gust Speed Precip Events Conditions
12:52 AM 66.0 °F - 63.0 °F 90% 30.07 in - Calm Calm - N/A   Unknown
1:52 AM 64.9 °F - 63.0 °F 93% 30.06 in - Calm Calm - N/A   Unknown
2:52 AM 64.0 °F - 62.1 °F 93% 30.06 in - Calm Calm - N/A   Unknown
3:52 AM 64.0 °F - 62.1 °F 93% 30.06 in - Calm Calm - N/A   Unknown
4:52 AM 64.9 °F - 63.0 °F 93% 30.07 in - Calm Calm - N/A   Unknown
5:52 AM 66.0 °F - 63.0 °F 90% 30.07 in - Calm Calm - N/A   Unknown
6:52 AM 66.0 °F - 63.0 °F 90% 30.08 in - Calm Calm - N/A   Unknown
7:52 AM 70.0 °F - 66.0 °F 87% 30.08 in - Calm Calm - N/A   Unknown
8:52 AM 73.9 °F - 66.9 °F 79% 30.08 in - Calm Calm - N/A   Unknown
9:52 AM 77.0 °F - 66.9 °F 71% 30.08 in - Calm Calm - N/A   Unknown
10:52 AM 80.1 °F 82.3 °F 66.9 °F 64% 30.08 in - Calm Calm - N/A   Unknown
11:52 AM 82.9 °F 85.0 °F 66.0 °F 56% 30.07 in - Calm Calm - N/A   Unknown
12:52 PM 84.0 °F 86.3 °F 66.0 °F 55% 30.06 in - Variable 3.5 mph - N/A   Unknown
1:52 PM 84.0 °F 84.5 °F 62.1 °F 47% 30.04 in - Calm Calm - N/A   Unknown
2:52 PM 84.9 °F 86.6 °F 64.9 °F 51% 30.03 in - SSE 4.6 mph - N/A   Unknown
3:52 PM 86.0 °F 88.2 °F 66.0 °F 51% 30.00 in - SSE 3.5 mph - N/A   Unknown
4:52 PM 87.1 °F 89.2 °F 66.0 °F 49% 29.98 in - Variable 4.6 mph - N/A   Unknown
5:52 PM 84.9 °F 87.1 °F 66.0 °F 53% 29.97 in - South 6.9 mph - N/A   Unknown
6:52 PM 82.9 °F 85.4 °F 66.9 °F 58% 29.96 in - South 5.8 mph - N/A   Unknown
7:52 PM 81.0 °F 83.8 °F 68.0 °F 65% 29.95 in - Calm Calm - N/A   Unknown
8:52 PM 75.9 °F - 68.0 °F 76% 29.96 in - Calm Calm - N/A   Unknown
9:52 PM 75.0 °F - 69.1 °F 82% 29.95 in - Calm Calm - N/A   Unknown
10:52 PM 75.0 °F - 66.0 °F 73% 29.92 in - South 3.5 mph - N/A   Unknown
11:52 PM 73.9 °F - 68.0 °F 82% 29.94 in - Calm Calm - N/A   Unknown